SV7GBF-2 Weather Reports


time (UTC)temp
C
wind
direction
speed
KPH
gust
KPH
rain 1hr
cm
rain 24hr
cm
rain mn
cm
humidity
%
barometer
mb
20260504021404 7 0 0.0 0.0 0.00 0.00 0.00 49
20260504020404 7 0 0.0 0.0 0.00 0.00 0.00 49
20260504015403 7 0 0.0 0.0 0.00 0.00 0.00 45
20260504014403 7 0 0.0 0.0 0.00 0.00 0.00 47
20260504013404 7 0 0.0 0.0 0.00 0.00 0.00 43
20260504011404 8 0 0.0 0.0 0.00 0.00 0.00 38
20260504010405 8 0 0.0 0.0 0.00 0.00 0.00 37
20260504005104 10 0 0.0 0.0 0.00 0.00 0.00 29
20260504004104 10 0 0.0 0.0 0.00 0.00 0.00 28
20260504003103 10 0 0.0 0.0 0.00 0.00 0.00 28
20260504002103 10 0 0.0 0.0 0.00 0.00 0.00 29
20260504001105 10 0 0.0 0.0 0.00 0.00 0.00 29
20260504000403 10 0 0.0 0.0 0.00 0.00 0.00 29
20260503234905 9 0 0.0 0.0 0.00 0.00 0.00 33
20260503233905 8 0 0.0 0.0 0.00 0.00 0.00 37
20260503232904 8 0 0.0 0.0 0.00 0.00 0.00 38
20260503231903 8 0 0.0 0.0 0.00 0.00 0.00 37
20260503230903 8 0 0.0 0.0 0.00 0.00 0.00 37
20260503230405 8 0 0.0 0.0 0.00 0.00 0.00 37
20260503225404 8 0 0.0 0.0 0.00 0.00 0.00 37
20260503224404 9 0 0.0 0.0 0.00 0.00 0.00 31
20260503223404 10 0 0.0 0.0 0.00 0.00 0.00 30
20260503222404 10 0 0.0 0.0 0.00 0.00 0.00 30
20260503221404 10 0 0.0 0.0 0.00 0.00 0.00 27
20260503220403 10 0 0.0 0.0 0.00 0.00 0.00 29
20260503215403 10 0 0.0 0.0 0.00 0.00 0.00 30
20260503214404 11 0 0.0 0.0 0.00 0.00 0.00 26
20260503213406 11 0 0.0 0.0 0.00 0.00 0.00 18
20260503212404 11 0 0.0 0.0 0.00 0.00 0.00 18
20260503211404 11 0 0.0 0.0 0.00 0.00 0.00 18
20260503210404 11 0 0.0 0.0 0.00 0.00 0.00 18
20260503205405 11 0 0.0 0.0 0.00 0.00 0.00 18
20260503204404 12 0 0.0 0.0 0.00 0.00 0.00 18
20260503203404 12 0 0.0 0.0 0.00 0.00 0.00 15
20260503202404 12 0 0.0 0.0 0.00 0.00 0.00 15
20260503201404 12 0 0.0 0.0 0.00 0.00 0.00 15
20260503200403 12 0 0.0 0.0 0.00 0.00 0.00 15
20260503195403 12 0 0.0 0.0 0.00 0.00 0.00 15
20260503194404 12 0 0.0 0.0 0.00 0.00 0.00 15
20260503193405 13 0 0.0 0.0 0.00 0.00 0.00 15
20260503192404 13 0 0.0 0.0 0.00 0.00 0.00 15
20260503191403 13 0 0.0 0.0 0.00 0.00 0.00 17
20260503190404 13 0 0.0 0.0 0.00 0.00 0.00 15
20260503185404 13 0 0.0 0.0 0.00 0.00 0.00 14
20260503184404 13 0 0.0 0.0 0.00 0.00 0.00 17
20260503183404 13 0 0.0 0.0 0.00 0.00 0.00 14
20260503182404 14 0 0.0 0.0 0.00 0.00 0.00 14
20260503181404 14 0 0.0 0.0 0.00 0.00 0.00 14
20260503180404 14 0 0.0 0.0 0.00 0.00 0.00 14
20260503175404 15 0 0.0 0.0 0.00 0.00 0.00 14
20260503174404 15 0 0.0 0.0 0.00 0.00 0.00 14
20260503173404 15 0 0.0 0.0 0.00 0.00 0.00 14
20260503172404 15 0 0.0 0.0 0.00 0.00 0.00 14
20260503171403 15 0 0.0 0.0 0.00 0.00 0.00 14
20260503170404 15 0 0.0 0.0 0.00 0.00 0.00 14
20260503150407 17 0 0.0 0.0 0.00 0.00 0.00 13
20260503131406 17 0 0.0 0.0 0.00 0.00 0.00 13
20260503130407 18 0 0.0 0.0 0.00 0.00 0.00 13
20260503090404 14 0 0.0 0.0 0.00 0.00 0.00 14
20260503081404 12 0 0.0 0.0 0.00 0.00 0.00 20
20260503080404 12 0 0.0 0.0 0.00 0.00 0.00 20
20260503072404 12 0 0.0 0.0 0.00 0.00 0.00 25
20260503071404 12 0 0.0 0.0 0.00 0.00 0.00 26
20260503070404 12 0 0.0 0.0 0.00 0.00 0.00 26
20260503054404 10 0 0.0 0.0 0.00 0.00 0.00 35
20260503053404 10 0 0.0 0.0 0.00 0.00 0.00 35
20260503052404 10 0 0.0 0.0 0.00 0.00 0.00 37
20260503051403 10 0 0.0 0.0 0.00 0.00 0.00 38
20260503050404 10 0 0.0 0.0 0.00 0.00 0.00 38
20260503045404 10 0 0.0 0.0 0.00 0.00 0.00 38
20260503044404 9 0 0.0 0.0 0.00 0.00 0.00 38
20260503043404 10 0 0.0 0.0 0.00 0.00 0.00 37
20260503042405 10 0 0.0 0.0 0.00 0.00 0.00 36
20260503041405 10 0 0.0 0.0 0.00 0.00 0.00 36
20260503035406 9 0 0.0 0.0 0.00 0.00 0.00 37
20260503034403 9 0 0.0 0.0 0.00 0.00 0.00 35
20260503033404 9 0 0.0 0.0 0.00 0.00 0.00 34
20260503031405 9 0 0.0 0.0 0.00 0.00 0.00 37
20260503030405 9 0 0.0 0.0 0.00 0.00 0.00 37
20260503025404 9 0 0.0 0.0 0.00 0.00 0.00 37
20260503024405 9 0 0.0 0.0 0.00 0.00 0.00 38
20260503022406 9 0 0.0 0.0 0.00 0.00 0.00 39